www.pogodaiklimat.ru

Погода и климат >> Архив погоды >> Россия >> Хабаровский край >> Гвасюги


ПОГОДА в Гвасюгах

  • Прогноз погоды в Гвасюгах
  • Монитор погоды в Гвасюгах

АРХИВ ПОГОДЫ в Гвасюгах

Время (UTC), дата Ветер
(напр.,м/с)
 
Видим.   Явления Облачность Т
(С)
Тd
(С)
f
(%)
Тe
(С)
Тes
(С)
Комфортность P
(гПа)
Po
(гПа)
Тmin
(С)
Tmax
(С)
R
(мм)
R24
(мм)
S
(см)
18 16.07 штиль 0 1000 м туман на расстоянии 10/10 600 м
[St]
+16.0 +15.1 94 +16 +16 1011.1 990.0
21 16.07 штиль 0 500 м туман ясно +16.2 +15.4 95 +16 +18 1010.8 989.7 +15.0
00 17.07 штиль 0 20 км {ливн. осадки, туман} 10/10 600 м
[Sc]
+22.6 +18.3 77 +28 +28 душно 1009.4 988.8
03 17.07 З 1 50 км 8/5 600 м
[Sc Ci sp]
+25.9 +18.2 63 +31 +40 очень
душно
1007.1 986.8
06 17.07 ЮЗ 2 50 км 10/8 600 м
[Sc Cs]
+26.9 +17.3 56 +31 +33 душно 1005.5 985.3
09 17.07 ЮЗ 1 50 км 9/8 600 м
[Sc Ac trans]
+24.7 +17.1 63 +29 +29 душно 1005.1 984.7 +28.0 2
12 17.07 штиль 0 50 км 10/10 600 м
[Sc]
+20.0 +18.6 92 +23 +23 комфорт 1006.2 985.5
15 17.07 штиль 0 10 км слаб. ливневой дождь 10/10 600 м
[Cb cap]
+19.6 +18.5 93 +22 +22 комфорт 1005.5 984.8
18 17.07 штиль 0 20 км {ливн. осадки} 10/10 600 м
[Cb cap]
+19.2 +18.3 95 +21 +21 комфорт 1004.4 983.7
21 17.07 ЮЗ 1 10 км слаб. ливневой дождь 10/10 600 м
[Cb cap]
+19.6 +18.6 94 +23 +23 комфорт 1004.4 983.7 +19.2 4
00 18.07 ЮЗ 2 20 км {ливн. осадки} 10/10 600 м
[Cb cap]
+22.0 +18.6 81 +27 +27 душно 1004.3 983.8
03 18.07 ЮЗ 4 50 км 9/9 600 м
[Cb cap]
+24.0 +18.2 70 +28 +30 душно 1003.3 982.9
06 18.07 штиль 0 20 км в посл. час ливневой дождь 10/10 600 м
[Cb cap]
+22.4 +19.7 85 +28 +28 душно 1003.0 982.6
09 18.07 штиль 0 20 км в посл. час ливневой дождь 10/9 600 м
[Cb cap Ci ing]
+22.8 +19.8 83 +29 +29 очень
душно
1002.9 982.5 +24.2 1
12 18.07 штиль 0 20 км {ливн. осадки} 10/6 600 м
[Cb cap Ac trans Ci ing]
+19.9 +18.6 92 +23 +23 комфорт 1004.1 983.4
15 18.07 СВ 1 20 км зарница 10/8 600 м
[Cb cap Ci ing]
+19.2 +18.2 94 +22 +22 комфорт 1004.0 983.3
18 18.07 штиль 0 20 км гроза без осадков 10/10 600 м
[Cb cap]
+19.0 +18.1 95 +21 +21 комфорт 1003.9 983.2
21 18.07 штиль 0 10 км гроза, ливневой дождь 10/10 600 м
[Cb cap]
+19.1 +18.2 95 +21 +21 комфорт 1004.8 984.1 +18.7 3
00 19.07 штиль 0 10 км гроза, ливневой дождь 10/10 600 м
[Cb cap]
+18.9 +17.7 93 +20 +20 1006.0 985.3
03 19.07 Ю 1 50 км {гроза, ливн. осадки} 9/4 600 м
[Cb cap Ci sp]
+23.4 +17.9 71 +29 +39 душно 1005.3 984.8
06 19.07 СЗ 1 10 км слаб. дождь {гроза} 10/6 600 м
[St Ac lent Cs]
+21.3 +19.0 87 +26 +28 душно 1004.8 984.2
09 19.07 Ю 1 50 км {дождь} 4/3 600 м
[Cu Sc Ci fib]
+23.9 +18.2 70 +28 +29 душно 1006.0 985.6 +23.9 8
12 19.07 штиль 0 50 км {дождь} 3/3 600 м
[Sc]
+17.5 +16.5 94 +17 +17 1008.2 987.2
15 19.07 С 1 50 км 10/0
[Cs]
+17.5 +16.5 94 +19 +19 1008.2 988.4
18 19.07 С 1 500 м туман ?/? +16.7 +15.9 95 +18 +18 1010.2 989.1
21 19.07 С 1 500 м туман ?/? +17.0 +16.2 95 +18 +18 1011.4 990.4 +16.5
00 20.07 штиль 0 50 км {туман} 1/0
[Ci fib]
+21.6 +17.3 77 +26 +41 душно 1011.3 990.6
03 20.07 ЮЗ 1 50 км 3/1 600 м
[Cu hum Ci fib]
+27.8 +15.8 48 +31 +49 душно 1010.0 989.8
06 20.07 Ю 1 50 км 3/3 600 м
[Cu hum Ci fib]
+30.6 +13.4 35 +32 +41 жарко 1008.9 988.8
09 20.07 штиль 0 50 км 8/0
[Ci sp]
+27.5 +21.9 72 +36 +37 очень
душно
1008.5 988.4 +31.5
12 20.07 СЗ 1 50 км 6/0
[Ci sp]
+19.6 +18.2 92 +23 +23 комфорт 1010.2 989.4
15 20.07 С 1 4000 м туман на расстоянии 4/0
[Ci fib]
+16.3 +15.4 94 +17 +17 1011.4 990.3
18 20.07 С 1 200 м туман ?/? +15.4 +14.6 95 +16 +16 1011.7 990.5
21 20.07 штиль 0 1000 м туман на расстоянии 10/5 600 м
[St Cc]
+16.7 +15.9 95 +17 +17 1012.0 991.0 +15.2
00 21.07 Ю 1 50 км {туман} 9/0
[Ac trans Ci sp]
+25.1 +18.9 68 +30 +39 душно 1011.0 990.6
03 21.07 Ю 1 20 км 10/8 600 м
[Sc Ac trans]
+29.5 +19.9 56 +36 +37 очень
душно
1009.5 989.4
06 21.07 штиль 0 20 км 10/10 600 м
[Sc]
+30.3 +21.5 59 +38 +38 очень
душно
1008.1 988.1
09 21.07 С 1 50 км 8/3 600 м
[Sc Ac trans Ci sp]
+29.5 +22.9 68 +39 +40 очень
душно
1006.9 986.9 +31.0
12 21.07 С 1 50 км 6/6 600 м
[Sc]
+23.5 +22.0 91 +30 +30 очень
душно
1008.2 987.7
15 21.07 СВ 1 20 км в посл. час ливневой дождь 10/10 600 м
[Cb cap]
+22.1 +21.1 94 +29 +29 очень
душно
1007.9 987.3
18 21.07 С 1 20 км {ливн. осадки} 9/3 600 м
[Cb cap Ac trans]
+21.3 +20.3 94 +26 +26 душно 1006.5 986.0
21 21.07 штиль 0 500 м туман ?/? +21.2 +20.3 95 +26 +26 душно 1005.3 984.7 +19.9 6
00 22.07 СВ 1 20 км {туман} 6/0
[Ci sp]
+27.0 +20.1 66 +33 +45 очень
душно
1003.2 983.1
03 22.07 СВ 1 20 км 10/0
[Ac lent Ci]
+31.4 +18.7 47 +36 +48 очень
душно
1000.7 980.9
06 22.07 Ю 1 20 км 9/8 600 м
[Sc Ac lent]
+29.8 +18.7 51 +35 +36 очень
душно
999.7 979.9
09 22.07 Ю 1 50 км 10/10 600 м
[Sc]
+26.6 +18.0 59 +31 +31 душно 999.2 979.1 +32.8
12 22.07 штиль 0 50 км 10/10 600 м
[Sc]
+21.6 +19.2 86 +27 +27 душно 1000.3 979.9
15 22.07 штиль 0 50 км 10/6 600 м
[Sc Ac trans Ci fib]
+20.8 +19.0 89 +25 +25 комфорт 1000.4 979.9
18 22.07 штиль 0 50 км 10/10 600 м
[Sc]
+19.7 +18.3 92 +22 +22 комфорт 1000.1 979.5
21 22.07 Ю 1 50 км 9/9 600 м
[Sc]
+21.3 +17.3 78 +25 +25 комфорт 1000.1 979.6 +19.5
00 23.07 ЮЗ 1 50 км 10/10 600 м
[Sc]
+22.7 +18.6 78 +28 +28 душно 999.9 979.6
03 23.07 штиль 0 50 км 10/10 600 м
[Sc]
+24.0 +19.9 78 +29 +29 душно 999.1 978.8
06 23.07 Ю 3 50 км {дождь} 6/5 600 м
[Cb cap Ci sp]
+26.7 +19.9 66 +33 +37 очень
душно
998.5 978.5
09 23.07 ЮВ 1 10 км слаб. ливневой дождь 9/8 600 м
[Cb cap Ac lent Ci fib]
+22.0 +20.1 89 +28 +28 душно 999.4 979.0 +28.0 1
12 23.07 штиль 0 50 км {ливн. осадки} 10/5 600 м
[Cb cap Ac lent Ci fib]
+20.4 +19.4 94 +24 +24 комфорт 1000.6 980.1

 

Местоположение метеостанции Гвасюги (Хабаровский край, Россия): широта 47.67 долгота 136.10 высота над уровнем моря 180 м.

В архиве по умолчанию представлена погода в Гвасюгах за последнюю неделю. Архивные данные за месяц целиком и за предыдущие месяцы, начиная с января 2011 года, Вы можете получить, выбрав интересующий диапазон дат из раскрывающегося списка и нажав кнопку "Ввод!".


*Определитесь, кто Вы:
робот инопланетянин человек

Внимание! Время в таблицах - всемирное. Для получения местного времени необходимо прибавить поправку, которая равна 10 ч.

Смотрите также архив погоды в соседних городах и на ближайших метеорологических станциях:

Погода в Бичевой (Хабаровский край, Россия) (39 км)
Погода в Оборе (Хабаровский край, Россия) (58 км)
Погода в Георгиевке (Хабаровский край, Россия) (74 км)
Погода в Хоре (Хабаровский край, Россия) (89 км)
Погода в Князе-Волконском (Хабаровский край, Россия) (102 км)
Погода в Сукпае (Хабаровский край, Россия) (105 км)
Погода в Хабаровске 21 км (Хабаровский край, Россия) (105 км)
Погода в Вяземском (Хабаровский край, Россия) (106 км)
Погода в Хабаровске Аэр. Большой (Хабаровский край, Россия) (113 км)
Погода в Бычихе (Хабаровский край, Россия) (118 км)

Пояснения к столбцам:

Ветер - указаны скорость ветра в м/с - средняя за 10 мин, порывы в срок и между сроками (в фигурных скобках) и направление, откуда дует ветер: С - северный, СВ - северо-восточный, В - восточный, ЮВ - юго-восточный, Ю - южный, ЮЗ - юго-западный, З - западный, СЗ - северо-западный.
Видимость - горизонтальная дальность видимости в метрах или километрах. При видимости от 1 до 10 км при отсутствии осадков обычно наблюдается дымка, при ухудшении видимости до 1 км и менее - туман. В сухую погоду видимость может ухудшаться дымом, пылью или мглою.
Явления - указаны атмосферные явления, наблюдавшиеся в срок или в последний час перед сроком; фигурными скобками обозначены явления, наблюдавшиеся между сроками (за 1-3 часа до срока); квадратными скобками обозначены град или гололедные отложения с указанием их диаметра в мм.
Облачность - указаны через наклонную черту общая и нижняя облачность в баллах и высота нижней границы облаков в метрах; квадратными скобками обозначены формы облаков: Ci - перистые, Cs - перисто-слоистые, Cc - перисто-кучевые, Ac - высококучевые, As - высокослоистые, Sc - слоисто-кучевые, Ns - слоисто-дождевые, Cu - кучевые, Cb - кучево-дождевые. Подробнее классификацию облаков см. в Атласе облаков (PDF).
T - Температура воздуха - температура, измеренная на высоте 2 м над землей.
Td - Температура точки росы - температура, при понижении до которой содержащийся в воздухе водяной пар достигнет насыщения.
f - Относительная влажность воздуха - влажноcть воздуха, измеренная на высоте 2 м над землей.
Te - Эффективная температура - температура, которую ощущает одетый по сезону человек в тени. Характеристика душности погоды. При расчете учитывается влияние влажности воздуха и скорости ветра на теплоощущения человека.
Tes - Эффективная температура на солнце - температура, которую ощущает человек, с поправкой на солнечный нагрев. Характеристика знойности погоды. Зависит от высоты солнца над горизонтом, облачности и скорости ветра. Ночью, в пасмурную погоду, а также при ветре 12 м/с и более поправка равна нулю.
P - Атмосферное давление - приведенное к уровню моря атмосферное давление.
Po - Атмосферное давление - измеренное на уровне метеостанции атмосферное давление.
Tmin - Минимальная температура - минимум температуры воздуха на высоте 2 м над землей.
Tmax - Максимальная температура - максимум температуры воздуха на высоте 2 м над землей.
R - Количество осадков - Количество выпавших осадков за период времени, мм. При наведении курсора мыши на число - период времени, за который выпало указанное количество осадков.
R24 - Количество осадков - Количество выпавших осадков за 24 часа, мм.
S - Снежный покров - Высота снежного покрова, см. При наведении курсора мыши на число - состояние снежного покрова и степень покрытия местности в баллах.